TimeEST,TemperatureF,Dew PointF,Humidity,Sea Level PressureIn,VisibilityMPH,Wind Direction,Wind SpeedMPH,Gust SpeedMPH,PrecipitationIn,Events,Conditions,WindDirDegrees,DateUTC
12:35 AM,50.0,44.6,82,30.21,7.0,NE,8.1,-,N/A,,Scattered Clouds,50,2013-12-14 05:35:00
12:55 AM,50.0,44.6,82,30.19,7.0,NE,8.1,-,N/A,,Clear,40,2013-12-14 05:55:00
1:15 AM,50.0,44.6,82,30.19,7.0,NE,6.9,-,N/A,,Clear,40,2013-12-14 06:15:00
1:35 AM,50.0,46.4,87,30.19,7.0,NE,5.8,-,N/A,,Scattered Clouds,40,2013-12-14 06:35:00
1:55 AM,50.0,46.4,87,30.19,7.0,NE,5.8,-,N/A,,Overcast,40,2013-12-14 06:55:00
2:15 AM,50.0,46.4,87,30.18,7.0,NE,5.8,-,N/A,,Scattered Clouds,40,2013-12-14 07:15:00
2:35 AM,50.0,46.4,87,30.17,5.0,NE,6.9,-,N/A,,Clear,40,2013-12-14 07:35:00
2:55 AM,51.8,46.4,82,30.17,7.0,NE,5.8,-,N/A,,Clear,40,2013-12-14 07:55:00
3:15 AM,51.8,48.2,88,30.18,7.0,NE,5.8,-,N/A,,Mostly Cloudy,40,2013-12-14 08:15:00
3:35 AM,51.8,48.2,88,30.17,7.0,NE,6.9,-,N/A,,Scattered Clouds,40,2013-12-14 08:35:00
3:55 AM,51.8,48.2,88,30.16,7.0,NE,5.8,-,N/A,,Clear,40,2013-12-14 08:55:00
4:15 AM,53.6,50.0,88,30.15,7.0,NE,8.1,-,N/A,,Clear,50,2013-12-14 09:15:00
4:35 AM,53.6,50.0,88,30.14,7.0,NE,5.8,-,N/A,,Clear,40,2013-12-14 09:35:00
4:55 AM,53.6,50.0,88,30.13,5.0,NE,4.6,-,N/A,,Clear,40,2013-12-14 09:55:00
5:15 AM,53.6,50.0,88,30.12,7.0,NE,4.6,-,N/A,,Clear,50,2013-12-14 10:15:00
5:35 AM,53.6,50.0,88,30.13,7.0,NNE,5.8,-,N/A,,Scattered Clouds,30,2013-12-14 10:35:00
5:55 AM,55.4,51.8,88,30.12,7.0,ENE,4.6,-,N/A,,Scattered Clouds,60,2013-12-14 10:55:00
6:15 AM,55.4,51.8,88,30.13,7.0,NE,5.8,-,N/A,,Mostly Cloudy,50,2013-12-14 11:15:00
6:35 AM,55.4,51.8,88,30.13,7.0,NE,4.6,-,N/A,,Scattered Clouds,50,2013-12-14 11:35:00
6:55 AM,55.4,51.8,88,30.13,7.0,NE,6.9,-,N/A,,Clear,50,2013-12-14 11:55:00
7:15 AM,55.4,51.8,88,30.12,10.0,NE,5.8,-,N/A,,Clear,50,2013-12-14 12:15:00
7:35 AM,55.4,51.8,88,30.14,7.0,NE,5.8,-,N/A,,Mostly Cloudy,40,2013-12-14 12:35:00
7:55 AM,55.4,51.8,88,30.13,7.0,NE,4.6,-,N/A,,Mostly Cloudy,50,2013-12-14 12:55:00
8:15 AM,55.4,53.6,94,30.14,7.0,NE,3.5,-,N/A,,Mostly Cloudy,40,2013-12-14 13:15:00
8:35 AM,55.4,53.6,94,30.14,7.0,NNE,4.6,-,N/A,,Scattered Clouds,30,2013-12-14 13:35:00
8:55 AM,55.4,53.6,94,30.13,7.0,East,3.5,-,N/A,,Clear,80,2013-12-14 13:55:00
9:15 AM,55.4,53.6,94,30.13,7.0,NE,3.5,-,N/A,,Clear,40,2013-12-14 14:15:00
9:35 AM,59.0,55.4,88,30.12,5.0,ENE,3.5,-,N/A,,Clear,70,2013-12-14 14:35:00
10:15 AM,62.6,57.2,82,30.08,5.0,ENE,4.6,-,N/A,,Haze,60,2013-12-14 15:15:00
10:55 AM,68.0,60.8,78,30.06,7.0,SE,4.6,-,N/A,,Overcast,140,2013-12-14 15:55:00
11:35 AM,68.0,60.8,78,30.02,10.0,SE,5.8,-,N/A,,Overcast,140,2013-12-14 16:35:00
11:55 AM,68.0,62.6,83,30.00,7.0,SSE,6.9,-,N/A,Rain,Light Rain,150,2013-12-14 16:55:00
12:15 PM,68.0,62.6,83,29.99,7.0,SSE,8.1,-,N/A,Rain,Rain,150,2013-12-14 17:15:00
12:35 PM,66.2,64.4,94,29.96,7.0,Calm,Calm,-,0.01,Rain,Light Rain,0,2013-12-14 17:35:00
12:55 PM,64.4,64.4,100,29.95,4.0,Calm,Calm,-,0.01,Rain,Heavy Rain,0,2013-12-14 17:55:00
1:15 PM,66.2,66.2,100,29.93,7.0,South,6.9,-,N/A,Rain,Rain,170,2013-12-14 18:15:00
1:35 PM,66.2,66.2,100,29.94,2.5,South,10.4,16.1,N/A,Rain,Light Rain,190,2013-12-14 18:35:00
1:55 PM,68.0,68.0,100,29.92,5.0,SSW,8.1,17.3,N/A,Rain,Light Rain,200,2013-12-14 18:55:00
2:15 PM,64.4,64.4,100,29.91,3.0,South,9.2,19.6,N/A,,Overcast,190,2013-12-14 19:15:00
2:35 PM,66.2,66.2,100,29.91,5.0,South,8.1,17.3,N/A,,Overcast,190,2013-12-14 19:35:00
2:55 PM,68.0,68.0,100,29.90,5.0,SSW,11.5,18.4,N/A,,Overcast,200,2013-12-14 19:55:00
3:15 PM,68.0,68.0,100,29.89,5.0,South,12.7,23.0,N/A,,Overcast,190,2013-12-14 20:15:00
3:35 PM,68.0,68.0,100,29.89,5.0,SSW,11.5,20.7,N/A,,Overcast,200,2013-12-14 20:35:00
3:55 PM,68.0,68.0,100,29.88,5.0,SSW,12.7,25.3,N/A,,Overcast,210,2013-12-14 20:55:00
4:15 PM,68.0,68.0,100,29.88,5.0,SSW,11.5,21.9,N/A,,Scattered Clouds,200,2013-12-14 21:15:00
4:35 PM,68.0,68.0,100,29.88,7.0,South,12.7,23.0,N/A,,Scattered Clouds,190,2013-12-14 21:35:00
4:55 PM,68.0,68.0,100,29.88,7.0,South,12.7,20.7,N/A,,Mostly Cloudy,190,2013-12-14 21:55:00
5:15 PM,68.0,66.2,94,29.88,7.0,South,10.4,24.2,N/A,,Scattered Clouds,190,2013-12-14 22:15:00
5:35 PM,68.0,66.2,94,29.88,7.0,South,11.5,17.3,N/A,Thunderstorm,Mostly Cloudy,190,2013-12-14 22:35:00
5:55 PM,68.0,68.0,100,29.90,7.0,South,11.5,23.0,N/A,Rain-Thunderstorm,Light Thunderstorms and Rain,190,2013-12-14 22:55:00
6:15 PM,68.0,68.0,100,29.88,3.0,SSW,9.2,19.6,N/A,Rain-Thunderstorm,Heavy Thunderstorms and Rain,210,2013-12-14 23:15:00
6:35 PM,66.2,66.2,100,29.88,5.0,SSW,9.2,-,N/A,Rain,Light Rain,210,2013-12-14 23:35:00
6:55 PM,66.2,66.2,100,29.87,7.0,SSW,9.2,-,N/A,Rain,Light Rain,210,2013-12-14 23:55:00
7:15 PM,66.2,66.2,100,29.88,7.0,SSW,9.2,-,N/A,Rain,Light Rain,210,2013-12-15 00:15:00
7:35 PM,66.2,66.2,100,29.87,7.0,SSW,8.1,-,N/A,Rain,Rain,200,2013-12-15 00:35:00
7:55 PM,66.2,66.2,100,29.87,5.0,SSW,16.1,24.2,N/A,Rain,Rain,200,2013-12-15 00:55:00
8:15 PM,66.2,66.2,100,29.86,10.0,SSW,10.4,20.7,N/A,Rain,Rain,200,2013-12-15 01:15:00
8:35 PM,68.0,68.0,100,29.85,10.0,SSW,15.0,27.6,N/A,Rain,Rain,200,2013-12-15 01:35:00
9:15 PM,68.0,68.0,100,29.84,10.0,SSW,12.7,23.0,N/A,Rain,Light Rain,200,2013-12-15 02:15:00
9:55 PM,68.0,68.0,100,29.83,7.0,SW,10.4,-,N/A,,Clear,220,2013-12-15 02:55:00
10:35 PM,66.2,66.2,100,29.84,7.0,SW,8.1,-,N/A,,Mostly Cloudy,220,2013-12-15 03:35:00
10:55 PM,64.4,64.4,100,29.83,7.0,SW,5.8,-,N/A,,Mostly Cloudy,220,2013-12-15 03:55:00
11:15 PM,64.4,64.4,100,29.84,7.0,SW,4.6,-,N/A,,Mostly Cloudy,220,2013-12-15 04:15:00
11:35 PM,64.4,64.4,100,29.83,7.0,SSW,5.8,-,N/A,,Overcast,210,2013-12-15 04:35:00
11:55 PM,64.4,64.4,100,29.83,5.0,SSW,4.6,-,N/A,,Mostly Cloudy,200,2013-12-15 04:55:00